Hourly Data Report for October 01, 2016

All times are specified in Local Standard Time (LST). Add 1 hour to adjust for Daylight Saving Time where and when it is observed.

RANKIN INLET A
NUNAVUT

62°48'38.000" N
92°06'53.000" W
32.30 m
2303405
71083
YRT

Download Data

Hourly Data (October 2016)
Hourly Data Report for October 1, 2016
Temp Definition
°C
Dew Point Temp Definition
°C
Rel Hum Definition
%
Wind Dir Definition
10's deg

Wind Spd Definition
km/h
Visibility Definition
km
Stn Press Definition
kPa
Hmdx Definition


Wind Chill Definition


Weather Definition


TIME
00:00 Legend Double Dagger 2.1 -1.9 75 29 24 24.1 102.23     Cloudy
01:00 Legend Double Dagger 2.0 -1.8 76 29 26 24.1 102.25     LegendNANA
02:00 Legend Double Dagger 2.0 -1.6 77 29 24 24.1 102.27     LegendNANA
03:00 Legend Double Dagger 1.9 -1.9 76 29 32 24.1 102.28     Cloudy
04:00 Legend Double Dagger 1.6 -1.8 78 29 26 24.1 102.29     LegendNANA
05:00 Legend Double Dagger 1.4 -1.8 79 30 25 24.1 102.30     LegendNANA
06:00 Legend Double Dagger 1.2 -1.9 80 29 24 24.1 102.29     Cloudy
07:00 Legend Double Dagger 1.2 -2.0 79 29 26 24.1 102.33     LegendNANA
08:00 Legend Double Dagger 1.3 -2.1 78 29 27 24.1 102.34     LegendNANA
09:00 Legend Double Dagger 1.6 -2.5 74 29 32 24.1 102.32     Cloudy
10:00 Legend Double Dagger 2.3 -2.2 72 29 29 24.1 102.32     LegendNANA
11:00 Legend Double Dagger 2.6 -1.8 73 31 33 24.1 102.33     LegendNANA
12:00 Legend Double Dagger 2.9 -2.2 69 30 34 24.1 102.33     Mostly Cloudy
13:00 Legend Double Dagger 3.7 -2.1 66 30 32 24.1 102.35     LegendNANA
14:00 Legend Double Dagger 3.4 -3.0 63 30 30 24.1 102.34     LegendNANA
15:00 Legend Double Dagger 4.4 -2.9 59 29 28 24.1 102.36     Mostly Cloudy
16:00 Legend Double Dagger 3.5 -2.7 64 31 28 24.1 102.35     LegendNANA
17:00 Legend Double Dagger 2.9 -2.0 70 30 28 24.1 102.37     LegendNANA
18:00 Legend Double Dagger 1.0 -1.9 81 30 18 24.1 102.38     Mainly Clear
19:00 Legend Double Dagger 0.4 -1.4 88 29 19 24.1 102.38     LegendNANA
20:00 Legend Double Dagger 0.5 -1.0 90 29 24 24.1 102.38     LegendNANA
21:00 Legend Double Dagger -0.3 -1.3 93 31 20 24.1 102.38   -6 Clear
22:00 Legend Double Dagger -0.2 -1.2 93 30 21 24.1 102.42   -6 LegendNANA
23:00 Legend Double Dagger 0.0 -1.0 93 30 20 24.1 102.46   -5 LegendNANA

Notes on Data Quality.

Legend

  • E = Estimated
  • M = Missing
  • NA = Not Available
  • ‡ = Partner data that is not subject to review by the National Climate Archives
Date modified: